Portada
METAR-TAF:

METAR-TAF

Aeroports :

Mount Gambier, Austràlia

latitud: 37-44-44S, longitud: 140-47-07E, altitud: 65 m

Observació

L'informe es va fer fa 2 hores i 5 minuts, a les 04:31 UTC
Vent 9 kt del Nord
Temperatura 14°C
Humitat 82%
Pressió 1016 hPa
Visibilitat 10 km o més
Núvols disperses a una alçada de 1000 ft
Cel cobert a una alçada de 5900 ft

METAR: YMTG 270431Z AUTO 35009KT 9999 // SCT010 OVC059 14/11 Q1016

Hora: 16:06 (06:36 UTC)


TAF: manca

Observacions i pronòstics meteorològics de més de 4000 aeroports (METAR i TAF).

Les estacions disponibles són els punts grocs i vermells al mapa.

Posi el ratolí al punt desitjat per veure el nom de l'estació.

Feu clic per veure les observacions i els pronòstics meteorològics.

Per canviar el mapa: feu clic els botons verds amb una creu de color negre per apropar; al botó verd amb un guió per allunyar la imatge; o en les fletxes verdes per a mapes adjacents.


METAR-TAF: